Tracking 19634 objects as of 22-May-2019
HD Live streaming from Space Station
objects crossing your sky now

COSMOS 2155

Track COSMOS 2155 now!
COSMOS 2155 is classified as:


NORAD ID: 21702
Int'l Code: 1991-064A
Perigee: 35,753.5 km
Apogee: 35,799.1 km
Inclination: 15.0 °
Period: 1,435.2 minutes
Semi major axis: 42147 km
RCS: 5.0119 m2 (large)
Launch date: September 13, 1991
Source: Commonwealth of Independent States (former USSR) (CIS)
Launch site: TYURATAM MISSILE AND SPACE COMPLEX (TTMTR)
aabbcc
Your satellite tracking list
Your tracking list is empty




NASA's NSSDC Master Catalog

Two Line Element Set (TLE):
1 21702U 91064A   19140.77961981 +.00000081 +00000-0 +00000-0 0  9994
2 21702 014.9776 000.5860 0005415 334.3615 018.4194 01.00334117101411
Source of the keplerian elements: AFSPC